Los Angeles, CA

9:43 AM PST on December 07, 2016 (GMT -0800)
Victoria Ave Elementary | | Change Station

Elev 125 ft 33.95 °N, 118.21 °W | Updated 1 minute ago

Mostly Cloudy
Mostly Cloudy
59.3 °F
Feels Like 59.3 °F
N
1.0
Wind Variable Wind from SE
Gusts 1.0 mph

Today
High -- | Low -- °F
--% Chance of Precip.
Yesterday
High -- | Low -- °F
Precip. -- in
Pressure 30.10 in
Visibility 8.0 miles
Clouds Mostly Cloudy 1900 ft
Dew Point 52 °F
Humidity 76%
Rainfall 0.00 in
Snow Depth Not available.
6:45 AM 4:43 PM
First Quarter, 54% visible
SPECI KCQT 071707Z AUTO 00000KT 8SM BKN019 14/08 A3010 RMK AO2 T01390078
Pressure 30.10 in
Visibility 8.0 miles
Clouds Mostly Cloudy 1900 ft
Dew Point 52 °F
Humidity 76%
Rainfall 0.00 in
Snow Depth Not available.
6:45 AM 4:43 PM
First Quarter, 54% visible
SPECI KCQT 071707Z AUTO 00000KT 8SM BKN019 14/08 A3010 RMK AO2 T01390078

10-Day Weather Forecast

Almanac

Astronomy

Dec. 07, 2016 Rise Set
Actual Time
Civil Twilight
Nautical Twilight
Astronomical Twilight
Moon
Length of Visible Light
Length of Day
Tomorrow will be .
, % of the Moon is Illuminated

Today's Extremes

State Highs State Lows

Community

WunderPhotos

Upload Photos

1,956,124 photos uploaded!

WunderBlog® & News

Nearby

Air Quality

  Air Quality AQ Index Pollutant
Not available.

Snow Depth

Station Depth Elevation

Earthquake Activity

City Distance Mag. Time & Date
Minimum magnitude displayed is 2.5.

Coastal Water Temperatures

Place Temperature

Stations

Nearby Weather Stations

Station Location Temp. Windchill Dew Point Humidity Wind Precip. Elev Updated Type
                   

Watches & Warnings

There are currently no watches in effect.